Карточка аэропорта UUYY

Внимание!
Информация на этой странице в стадии наполнения.
Если вы не увидели какой-то информации, или заметили неточность - пожалуйста сообщите нам!
Спасибо!
Команда RU-STAFF
Название аэропортаСыктывкар
Название аэропорта (англ.)Syktyvkar
Превышение339 ft. (103.3 m.)
Координаты61°38.502', 50°50.298'
Высота перехода3000 feet
Эшелон переходаQNH>=1013hPa:FL040; QNH<1013hPa:FL050; QNH<977hPa:FL060
Коды ответчика3130-3134, 5752-5757, 5770-5777, 6701-6717
Зона ОрВДСанкт-Петербург РПИ (ULLL)
Данные METARUUYY 290230Z 08003MPS 5000 -SHSNRA SCT006 BKN021CB 01/01 Q1019 R36/29//51 NOSIG RMK QFE755/1007
Проноз погоды (TAF)UUYY 290245Z 2903/3003 09003G12MPS 2100 -SHSN BKN004 BKN017CB TEMPO 2903/2906 0300 SHSN FZDZ FZFG BKN002 BKN016CB FM290600 08003G12MPS 9999 BKN017CB BECMG 2911/2913 04003MPS BECMG 2919/2921 09003MPS
NOTAMshow/hide NOTAM
AWOS   TABLE

Информация о ВПП

ВПП Длина ВПП (м.) Покрытие Курс ВПП Частота ILS
192500Асфальтобетон186111.7
012500Асфальтобетон6108.3

Диспетчерские позиции

Позывной Наименование органа УВД Частота
UUYY_R_APPСивкар-Круг124.600
UUYY_TWRСивкар-Старт124.600



Спутниковое изображение